Tracking 20942 objects as of 14-Jul-2020
HD Live streaming from Space Station
objects crossing your sky now

SL-8 DEB

Track SL-8 DEB now!
10-day predictions


NORAD ID: 21167
Int'l Code: 1991-009AE
Perigee: 1,450.7 km
Apogee: 1,668.3 km
Inclination: 73.9 °
Period: 117.1 minutes
Semi major axis: 7930 km
RCS: 0.0569 m2 (small)
Launch date: February 12, 1991
Source: Commonwealth of Independent States (former USSR) (CIS)
Launch site: PLESETSK MISSILE AND SPACE COMPLEX (PKMTR)

Note: This is SATELLITE DEBRIS
aabbcc
Your satellite tracking list
Your tracking list is empty




NASA's NSSDC Master Catalog

Two Line Element Set (TLE):
1 21167U 91009AE  20195.85294907 -.00000012 +00000-0 +32081-4 0  9999
2 21167 073.9165 039.9856 0137214 330.0711 042.0199 12.29288023317411
Source of the keplerian elements: AFSPC